Location: *
(31.7412°N, 35.4588°E)
Time: 15:46:22
(UTC+00:00)

Daily predictions for brighter satellites

Satellite Brightness Start Highest point End
(mag) Time Altitude Azimuth Time Altitude Azimuth Time Altitude Azimuth
Hubble Space Telescope 1.6 16:32:11 10° W 16:36:03 40° SSW 16:39:56 10° ESE
Cosmos 1655 Rocket 4.1 16:29:50 10° N 16:36:07 87° W 16:42:26 10° S
Unknown 3.1 16:37:43 10° NW 16:41:09 89° NE 16:44:33 10° SE
Cosmos 1315 Rocket 2.9 16:40:43 10° N 16:44:50 64° E 16:48:55 10° SSE
Cosmos 1869 Rocket 3.6 16:41:50 10° S 16:46:03 55° E 16:50:16 10° NNE
Cosmos 2369 Rocket 3.2 16:40:58 10° NNW 16:46:24 50° WSW 16:51:47 10° S
Cosmos 2292 Rocket 4.3 16:46:33 10° NNE 16:50:09 26° ENE 16:53:06 10° SE
NOAA 11 4.2 16:48:10 10° SSE 16:53:38 85° ENE 16:59:09 10° N
Meteor 1-25 Rocket 4.2 16:48:57 10° S 16:54:35 73° E 17:00:20 10° NNE
Unknown 3.3 16:52:27 10° NW 16:55:57 78° SW 16:59:24 10° SE
Falcon 9 debris 3.7 16:55:12 10° NW 16:58:35 55° SW 17:01:56 10° SSE
ATLAS 3B R/B 3.7 16:53:42 10° NW 17:00:06 46° WSW 17:06:43 10° S
USA 234 4.4 16:57:55 10° E 17:03:23 29° NE 17:08:51 10° NNW
FALCON 9 DEB 4.0 17:04:59 10° NW 17:08:18 44° SW 17:11:22 11° SSE
Meteor 1-14 Rocket 4.3 17:04:57 10° S 17:10:54 76° E 17:16:51 10° NNE
USA 186 1.0 17:16:12 28° SSE 17:17:15 61° ENE 17:19:45 10° N
SPOT 3 Rocket 3.6 17:13:42 10° SSE 17:18:48 62° ENE 17:23:54 10° N
Okean 1-7 3.2 17:14:30 10° N 17:18:55 76° W 17:23:16 10° S
Unknown 4.4 17:19:20 10° NNW 17:23:09 37° NE 17:24:55 24° E
Unknown 4.4 17:20:21 10° NNW 17:24:12 37° NE 17:25:57 25° E
Unknown 4.4 17:21:57 10° NNW 17:25:50 38° NE 17:27:31 26° E
COSMOS 2406 3.3 17:20:46 10° S 17:26:15 54° ESE 17:31:48 10° NNE
Unknown 4.3 17:23:36 10° NNW 17:27:31 40° NE 17:29:08 27° E
IUS-13 SRM-1 3.2 17:24:58 10° WSW 17:27:45 47° SSE 17:32:23 21° E
OAO 2 Rocket 3.4 17:22:58 10° WNW 17:28:12 73° NNE 17:31:12 25° E
ASTRO E2 2.6 17:24:55 10° W 17:28:53 78° S 17:30:34 33° ESE
Cosmos 773 Rocket 4.0 17:23:48 10° NNW 17:28:57 84° WSW 17:33:39 12° SSE
Unknown 4.3 17:25:14 10° NNW 17:29:10 41° NE 17:30:42 29° E
Okean 1 3.2 17:25:49 10° N 17:29:45 61° E 17:31:59 24° SSE
ARGOS 3.4 17:28:28 21° SE 17:31:44 48° ENE 17:36:52 10° N
Unknown 4.1 17:28:35 10° NNW 17:32:34 45° NE 17:33:58 32° E
Unknown 4.1 17:30:11 10° NNW 17:34:12 47° NE 17:35:33 33° E
Meteor 2-19 Rocket 4.4 17:28:40 10° N 17:34:45 63° E 17:39:31 17° SSE
Okean 3 3.9 17:31:37 10° NNE 17:35:33 38° E 17:36:20 35° ESE
Unknown 4.0 17:31:50 10° NNW 17:35:50 48° NE 17:37:07 35° E
Cosmos 2221 Rocket 3.4 17:32:20 10° N 17:36:45 74° E 17:39:33 22° SSE
Unknown 4.0 17:33:26 10° NNW 17:37:28 48° NE 17:38:39 36° E
Unknown 3.9 17:35:12 10° NNW 17:39:15 52° NE 17:40:23 39° E
Resurs 1-3 3.9 17:38:19 35° ESE 17:39:38 46° ENE 17:43:50 10° N
OAO 3 Copernicus 4.3 17:34:58 10° WSW 17:40:00 85° NNW 17:42:58 25° ENE
Unknown 4.0 17:36:38 10° NNW 17:40:40 49° NE 17:41:42 39° E
Cosmos 1602 4.5 17:37:32 10° SSW 17:41:16 52° W 17:45:00 10° N
SL-08 RB Rocket 4.2 17:40:35 35° ESE 17:41:38 41° ENE 17:45:54 10° N
Unknown 3.9 17:39:55 10° NNW 17:43:58 53° NE 17:44:52 43° E
CZ-2C R/B 3.6 17:43:28 31° E 17:44:00 32° ENE 17:48:12 10° N
Unknown 3.8 17:41:37 10° NW 17:45:41 55° NE 17:46:31 45° E
Unknown 4.3 17:43:44 10° WNW 17:47:17 42° SW 17:48:26 32° S
Unknown 3.7 17:43:24 10° NW 17:47:31 64° NE 17:48:19 51° E
BREEZE M DEB (TANK) 3.9 17:47:05 10° W 17:48:43 19° NNW 17:50:35 10° NNE
Unknown 3.7 17:44:51 10° NW 17:48:57 59° NE 17:49:39 51° E
SJ-6B 3.6 17:46:16 15° S 17:49:19 50° W 17:53:13 10° NNW
Unknown 3.7 17:46:32 10° NW 17:50:39 62° NE 17:51:17 54° E
ADEOS Rocket 3.1 17:45:15 10° NNE 17:51:32 82° ESE 17:58:31 10° S
Unknown 3.6 17:49:52 10° NW 17:54:00 67° NE 17:54:30 60° E
Unknown 3.5 17:51:29 10° NW 17:55:37 70° NE 17:56:03 63° E
SJ 16-02 2.8 17:58:41 24° NE 17:58:41 24° NE 18:00:43 10° NNE
OAO 3 Rocket 3.6 17:52:29 10° WNW 17:57:16 58° N 17:58:52 38° ENE
Unknown 3.5 17:53:09 10° NW 17:57:17 73° NE 17:57:40 67° E
Unknown 3.4 17:54:51 10° NW 17:59:00 76° NE 17:59:18 71° E
Cosmos 1898 Rocket 3.4 17:53:52 10° S 17:59:07 71° ESE 18:04:21 10° NNE
Unknown 3.4 17:56:28 10° NW 18:00:37 80° NE 18:00:51 75° E
Cosmos 1536 4.4 18:03:08 24° NE 18:03:08 24° NE 18:05:00 10° NNE
Aureole 2 Rocket 4.2 17:59:10 10° N 18:00:03 19° N 18:00:03 19° N
H-2A R/B 2.0 17:59:46 29° S 18:02:23 77° WSW 18:07:22 10° NNW
Delta 2 Rocket 3.4 17:58:22 10° WSW 18:02:41 75° SSE 18:03:13 66° ESE
Meteor 2-4 Rocket 3.6 17:57:58 10° N 18:03:15 59° E 18:04:07 52° ESE
Cosmos 923 Rocket 4.0 17:58:36 10° N 18:03:55 67° ENE 18:04:55 54° SE
Unknown 3.5 18:00:05 10° NW 18:04:13 80° SW 18:04:25 77° S
FUSE 4.5 17:59:31 10° WSW 18:04:29 40° S 18:04:36 40° S
Unknown 3.5 18:01:43 10° NW 18:05:51 79° SW 18:05:58 78° SSW
Unknown 3.5 18:03:11 10° NW 18:07:21 84° SW 18:07:21 84° SW
Delta 128 4.2 18:01:48 10° WSW 18:07:57 55° S 18:08:32 52° SSE
Unknown 3.5 18:04:47 10° NW 18:08:52 83° WSW 18:08:52 83° WSW
Unknown 3.6 18:08:06 10° NW 18:12:04 75° W 18:12:04 75° W
Cosmos 858 Rocket 4.4 18:11:17 54° SSE 18:12:24 71° ESE 18:17:40 10° NNE
Resurs 01 Rocket 1.4 18:12:30 83° SSE 18:12:41 88° ENE 18:17:06 10° NNW
Unknown 3.7 18:09:50 10° NW 18:13:42 70° W 18:13:42 70° W
Cosmos 44 4.1 18:10:11 10° NW 18:14:14 38° WSW 18:15:11 33° SW
Cosmos 1809 Rocket 4.5 18:08:58 10° N 18:15:04 59° E 18:15:52 55° ESE
Cosmos 1680 Rocket 3.4 18:09:58 10° N 18:15:09 63° ENE 18:15:16 63° E
Unknown 3.8 18:11:27 10° NW 18:15:15 67° W 18:15:15 67° W
Hubble Space Telescope 3.0 18:14:09 10° WSW 18:15:53 16° SW 18:15:53 16° SW
Unknown 3.9 18:13:08 10° NW 18:16:53 63° W 18:16:53 63° W
FALCON 9 R/B 4.5 17:35:31 10° SW 18:17:58 74° SSE 18:24:41 29° E
SL-24 R/B 4.2 18:20:53 79° NE 18:20:53 79° NE 18:25:13 10° N
Unknown 4.3 18:19:51 10° NW 18:23:18 50° W 18:23:18 50° W
Meteor 2-21 4.4 18:17:55 10° N 18:24:02 63° E 18:24:23 62° E
Unknown 4.4 18:21:30 10° NW 18:24:52 48° W 18:24:52 48° W
MetOp-B 4.3 18:27:37 56° NE 18:27:37 56° NE 18:32:21 10° N
Cosmos 1833 Rocket 2.5 18:29:41 82° SE 18:29:47 83° ESE 18:35:26 10° NNE
Meteor 1-11 Rocket 4.0 18:26:48 27° SSW 18:30:07 70° W 18:36:05 10° N
Cosmos 1386 Rocket 4.4 18:25:34 10° N 18:31:44 89° ENE 18:32:45 65° S
Cosmos 2082 Rocket 3.5 18:34:47 28° NE 18:34:47 28° NE 18:37:27 10° NNE
Cosmos 883 Rocket 4.4 18:30:53 57° S 18:32:19 86° E 18:38:41 10° N
Cosmos 1656 4.3 18:30:16 10° N 18:34:47 43° NE 18:34:47 43° NE
Cosmos 2098 Rocket 4.0 18:34:33 10° N 18:38:39 57° NNE 18:38:39 57° NNE
ASTEX 1 3.8 18:35:10 10° N 18:40:01 59° W 18:40:17 58° W
Cosmos 1674 Rocket 4.5 18:35:59 10° NNW 18:39:20 46° NW 18:39:20 46° NW
Terra 4.4 18:43:22 10° NNE 18:43:22 10° NNE 18:43:27 10° NNE
Meteor 2-21 Rocket 4.5 18:36:13 10° N 18:41:49 65° NE 18:41:49 65° NE
Spot 2 Rocket 3.8 18:44:55 64° NNW 18:44:55 64° NNW 18:49:17 10° NNW
Cosmos 1937 Rocket 4.0 18:43:46 47° WSW 18:44:53 57° WNW 18:50:07 10° N
USA 234 3.2 18:45:14 67° S 18:45:56 73° SW 18:52:30 10° NW
Cosmos 1697 Rocket 4.0 18:45:44 10° N 18:49:14 30° NNE 18:49:14 30° NNE
CZ-2C R/B 3.2 18:54:32 10° N 18:58:58 56° NNW 18:58:58 56° NNW
Cosmos 1709 Rocket 4.2 19:01:12 10° N 19:06:22 64° NNW 19:06:22 64° NNW
Cosmos 1980 Rocket 4.0 19:09:21 10° N 19:11:44 22° NNE 19:11:44 22° NNE
SJ 16-02 4.2 19:35:35 14° WNW 19:35:35 14° WNW 19:37:35 10° NW
Milstar 3 Cent rocket 4.2 19:41:42 10° W 20:01:50 68° SW 20:01:50 68° SW
Milstar 3 4.4 19:51:22 10° W 20:09:10 58° SW 20:09:10 58° SW
SL-16 R/B 4.4 23:14:26 10° NNE 23:18:23 19° ENE 23:18:30 19° ENE
ADEOS II 4.4 23:20:27 10° NE 23:22:18 18° ENE 23:22:18 18° ENE
CZ-2D R/B 4.3 23:22:05 10° N 23:23:47 21° N 23:23:47 21° N
